Flag for Greece Weather past 2 weeks in Preveza, Greece

Now
79 °F

Scattered clouds.


Feels Like: 81 °F
Forecast: 71 / 87 °F
Wind: 5 mph from East

Location: Aktion Airport

Current Time: Sep 2, 2015 at 10:10:17 AM

Latest Report: Sep 2, 2015 at 9:50 AM


Visibility: N/A

Pressure: 29.89 "Hg

Humidity: 65%

Dew point: 66 °F

Location of PrevezaLocation

Historic Weather in Preveza — Graph

°F

Preveza temperature yesterday

Maximum temperature yesterday: 95 °F (at 12:50 PM)
Minimum temperature yesterday: 77 °F (at 12:50 AM)
Average temperature yesterday: 84 °F

Past Weeks' High & Low Weather Summary

 TemperatureHumidityPressure
High100 °F (Aug 20, 10:50 AM)89% (Aug 19, 6:20 AM)30.09 "Hg (Aug 19, 6:20 AM)
Low66 °F (Aug 24, 6:20 AM)11% (Aug 28, 1:20 PM)29.86 "Hg (Aug 18, 8:20 AM)
Average82 °F55%29.96 "Hg
* Reported Aug 18 8:20 AM — Sep 2 8:50 AM, Preveza, Weather by CustomWeather, © 2015

Note: Actual official high and low records may vary slightly from our data, if they occured in-between our weather recording intervals... More about our weather records

Advertising

Preveza weather history for previous 24 hours

 ConditionsComfort  
Time TempWeatherWind HumidityBarometerVisibility
8:50 AM
Wed, Sep 2
79 °FScattered clouds.5 mph61%29.89 "HgN/A
8:20 AM75 °FScattered clouds.7 mph69%29.86 "HgN/A
7:50 AM73 °FPassing clouds.6 mph78%29.86 "HgN/A
7:20 AM72 °FClear.3 mph83%29.86 "Hg10 mi
6:50 AM72 °FClear.5 mph83%29.86 "Hg10 mi
6:20 AM72 °FClear.No wind83%29.86 "Hg10 mi
5:50 AM73 °FClear.5 mph83%29.86 "Hg10 mi
4:50 AM73 °FClear.No wind89%29.86 "Hg10 mi
3:50 AM73 °FClear.No wind83%29.86 "Hg10 mi
2:50 AM73 °FClear.No wind89%29.89 "Hg10 mi
1:50 AM73 °FClear.No wind89%29.89 "Hg10 mi
12:50 AM75 °FClear.No wind83%29.89 "Hg10 mi
11:50 PM
Tue, Sep 1
77 °FClear.No wind83%29.89 "Hg10 mi
10:50 PM79 °FClear.5 mph79%29.89 "Hg10 mi
9:50 PM81 °FClear.6 mph70%29.89 "Hg10 mi
8:50 PM81 °FSunny.6 mph66%29.89 "Hg10 mi
8:20 PM81 °FSunny.6 mph66%29.86 "Hg10 mi
7:50 PM82 °FSunny.8 mph70%29.86 "Hg10 mi
7:20 PM82 °FSunny.10 mph70%29.86 "Hg10 mi
6:50 PM84 °FSunny.10 mph66%29.86 "Hg10 mi
6:20 PM86 °FSunny.12 mph62%29.86 "Hg10 mi
5:50 PM88 °FSunny.13 mph59%29.86 "Hg10 mi
5:20 PM88 °FSunny.13 mph55%29.89 "Hg10 mi
4:50 PM90 °FSunny.13 mph49%29.89 "Hg10 mi
4:20 PM90 °FSunny.13 mph43%29.89 "Hg10 mi
3:50 PM91 °FSunny.12 mph32%29.89 "Hg10 mi
3:20 PM91 °FSunny.13 mph32%29.89 "Hg10 mi
2:50 PM90 °FSunny.13 mph43%29.89 "Hg10 mi
2:20 PM90 °FSunny.13 mph52%29.89 "Hg10 mi
1:50 PM91 °FSunny.13 mph46%29.92 "Hg10 mi
1:20 PM93 °FSunny.9 mph26%29.92 "Hg10 mi
12:50 PM95 °FSunny.6 mph23%29.92 "Hg10 mi
12:20 PM91 °FSunny.3 mph26%29.92 "Hg10 mi
11:50 AM91 °FSunny.3 mph28%29.92 "Hg10 mi
11:20 AM88 °FSunny.3 mph35%29.92 "Hg10 mi
10:50 AM86 °FSunny.6 mph38%29.92 "Hg10 mi
10:20 AM84 °FSunny.7 mph45%29.92 "Hg10 mi
Weather by CustomWeather, © 2015

See weather overviewHow to use our weather pages